Home   Weather   Worthing   Past weeks
Flag for United Kingdom

Past Weather in Worthing, England, United Kingdom — Yesterday and Last 2 Weeks

Now
61 °F

Scattered clouds.


Feels Like: 61 °F
Forecast: 59 / 53 °F
Wind: 13 mph from Southwest

Location: Shoreham Airport

Current Time: Oct 15, 2019 at 3:32:44 pm

Latest Report: Oct 15, 2019 at 2:50 pm


Visibility: N/A

Pressure: 29.65 "Hg

Humidity: 77%

Dew Point: 54 °F

Location of WorthingLocation

Past Weather in Worthing — Graph

°F

Worthing Temperature Yesterday

Maximum temperature yesterday: 63 °F (at 4:50 pm)
Minimum temperature yesterday: 55 °F (at 8:20 am)
Average temperature yesterday: 59 °F

High & Low Weather Summary for the Past Weeks

 TemperatureHumidityPressure
High66 °F (Oct 1, 12:50 pm)100% (Sep 30, 6:50 pm)30.15 "Hg (Sep 30, 6:50 pm)
Low41 °F (Oct 3, 8:20 am)48% (Oct 2, 1:50 pm)29.47 "Hg (Oct 1, 12:20 pm)
Average58 °F81%29.80 "Hg
* Reported Sep 30 2:20 pm — Oct 15 2:20 pm, Worthing. Weather by CustomWeather, © 2019

Note: Actual official high and low records may vary slightly from our data, if they occured in-between our weather recording intervals... More about our weather records

Advertising

Worthing Weather History for the Previous 24 Hours

Scroll right to see more
 ConditionsComfort  
Time TempWeatherWind HumidityBarometerVisibility
2:20 pm
Tue, Oct 15
59 °FScattered clouds.14 mph82%29.65 "HgN/A
1:50 pm59 °FScattered clouds.14 mph77%29.65 "HgN/A
1:20 pm61 °FScattered clouds.14 mph88%29.65 "HgN/A
12:50 pm63 °FScattered clouds.13 mph83%29.65 "HgN/A
12:20 pm61 °FScattered clouds.6 mph88%29.65 "HgN/A
11:20 am59 °FScattered clouds.2 mph88%29.65 "HgN/A
10:50 am57 °FScattered clouds.3 mph94%29.65 "HgN/A
10:20 am57 °FScattered clouds.1 mph100%29.65 "HgN/A
9:50 am55 °FScattered showers. Scattered clouds.1 mph100%29.65 "HgN/A
9:20 am55 °FScattered clouds.1 mph100%29.65 "HgN/A
8:50 am54 °FScattered clouds.2 mph100%29.62 "HgN/A
8:20 am54 °FFog.6 mph100%29.62 "Hg2 mi
7:50 am54 °FFog.3 mph94%29.62 "Hg2 mi
7:50 pm
Mon, Oct 14
61 °FLight rain. Passing clouds.10 mph94%29.53 "Hg4 mi
7:20 pm61 °FLight rain. Passing clouds.12 mph94%29.53 "Hg4 mi
6:50 pm61 °FPassing clouds.8 mph94%29.50 "Hg4 mi
6:20 pm63 °FRain showers. Passing clouds.12 mph94%29.53 "Hg3 mi
5:50 pm63 °FRain showers. Partly sunny.13 mph94%29.53 "Hg4 mi
5:20 pm63 °FThundershowers. Partly sunny.15 mph88%29.53 "Hg4 mi
4:50 pm63 °FPartly sunny.14 mph88%29.53 "Hg5 mi
4:20 pm61 °FThundershowers. Partly sunny.13 mph94%29.56 "Hg5 mi
3:50 pm61 °FPartly sunny.13 mph94%29.56 "Hg6 mi
3:20 pm61 °FPartly sunny.15 mph94%29.56 "Hg5 mi
Weather by CustomWeather, © 2019

See weather overview